Japanese version Home page |
Updated on September 28, 2002 |
Profile
|
Orbital ElementsT 2002 Aug. 18.2562 TT MPC q 1.306193 (2000.0) P Q Peri. 125.7442 +0.5682190 +0.6998123 Node 154.1483 -0.4737167 -0.1519550 e 1.0 Incl. 96.8991 +0.6728445 -0.6979774 >From 132 observations 2002 Aug. 26-Sept. 14.
|
Finding Charts
|
Magnitudes Graphm1 = 13.2 + 5 log d + 10.0 log r
|
The orbital elements are published on M.P.E.C. 2002-S11.
|